{"data":{"norad_id":69084,"intl_designator":"2026-104M","name":"QIANFAN-138","alt_names":[],"object_type":"PAYLOAD","status":"ACTIVE","operator":null,"country":"PRC","launch_date":"2026-05-12","launch_site_code":"TAISC","launch_vehicle":null,"mission":null,"orbit_class":"UNKNOWN","rcs_meters":null,"size_class":null,"mass_kg":null,"dimensions":null,"purposes":[],"wikipedia_slug":null,"has_3d_model":false,"image_url":null,"decayed_at":null,"tle_current":{"epoch":"2026-09-20T05:04:11.772768Z","epoch_age_seconds":48259,"freshness":"FRESH","line1":"1 69084U 26104M   26263.21124737  .00000060  00000+0  74327-4 0  9998","line2":"2 69084  88.9897 331.7948 0002532 106.0491 254.0939 13.51021800 17973","mean_motion":13.510218,"eccentricity":0.0002532,"inclination_deg":88.9897,"raan_deg":331.7948,"arg_perigee_deg":106.0491,"mean_anomaly_deg":254.0939,"bstar":7.4327e-5,"rev_number":1797,"period_min":106.58599291292,"perigee_km":1066.6159896554,"apogee_km":1070.3869673809,"semimajor_km":7446.6384785182,"source":"CELESTRAK","updated_at":"2026-09-20T09:00:24.672541Z"}}}